aascrace

Pioneer Club One Loft - 🏁RACE 1 DUNCHURCH🏁

Station: DUNCHURCH - A Race

Distance: 191.511 Kilometers    

Release: 01-Aug-2020 08:00

Weather Release: SUNNY    Arrival: SUNNY

Wind at Release: E 5KM/H 8KM/H GUST     Wind at Arrival: E 5KM/H 8KM/H GUST

Temp at Release: 18°    Temp at Arrival: 18°

Lofts: 41

Birds: 73

Clocked: 66

🥇-$750.00, 🥈-$350.00, 🥉-$150.00, FIRST PICK BIRD🎁 GOOD LUCK EVERYONE
Drops Pos Breeder Pigeon Name Color Sex Ent Arrival Speed To Win Elg PdPointsPickPhoto
750 1 King Conch Loft - ON 22521-CU20-CU 🔴Queen Conch-JZ-NG-KV BB H 1 10:36:53.00 1220.729 00:00:00 Yes 79
350 2 Paul Tsiampas - ON 20121-CU20-CU 🔵Bella BLCH H 1 10:36:54.00 1220.599 00:00:01 Missing 78
150 3 Ian Sibbald - ON 10282-CU20-CU 🟡Kano-IS-EE-NG BCH H 1 10:37:16.00 1217.753 00:00:23 Yes 77
4 Emily Eichhorn - ON 8230-CU20-BARR 🟢Snickers-EE-DG-NG CHB H 1 10:40:21.00 1194.337 00:03:28 Yes 76
5 Gregoruk Loft - ON 0250-CU20-TBAY 🟢Little Chief-JZ-JZ-KP BB H 1 10:47:14.00 1145.178 00:10:21 Yes 75
6 R.S - ON 2653-CU20-CU 🟡Jacob GRZL C 1 10:50:23.00 1124.006 00:13:30 Missing 74
7 Rick Fyfe - ON 0753-CU20-NIAG 🔴Dart-RF-RF-RF MLY H 1 10:51:18.00 1117.991 00:14:25 Yes 73
8 Sparky Loft - ON 2933-CU20-YRI 🟡Kill Shot-SP-MS BLCH C 1 10:56:45.00 1083.518 00:19:52 Yes 72
9 Tavares & Son - ON 7341-CU20-MISS 🔴Eatmyfeathers-DT-DZ-S BB H 1 10:57:48.00 1077.120 00:20:55 Yes 71
10 Wolfhillloft - ON 0127-CU20-WOLF 🟡Lone Wolf BBWF C 1 10:57:54.00 1076.515 00:21:01 Yes 70
11 Century 21 B J Roth Heritage Acres - ON 2050-CU20-ORI 🟢Mrs. Smoke-DD-EE-DG BLCH H 1 10:58:06.00 1075.306 00:21:13 Yes 69
12 Teixeira Loft - ON 2743-CU20-CU 🔴Ocean's 11-CT-NG BC H 1 10:58:09.00 1075.004 00:21:16 Yes 68
13 Antbar Loft - ON 2962-CU20-YRI 🔴Phoenix Fire Storm-JZ BB C 1 10:58:11.00 1074.803 00:21:18 Yes 67
100 14 Sparky Loft - ON 2922-CU20-YRI 🟡Dosha Jr-SP BB H 2 10:58:13.00 1074.602 00:21:20 Yes 66
15 Century 21 B J Roth Heritage Acres - ON 2099-CU20-ORI 🟢Bucko-JZ BLH C 2 11:00:21.00 1061.890 00:23:28 Yes 65
16 Werner Vahle - ON 8770-CU20-CU 🟢Time Tells-JZ-WV-NG BBWF C 1 11:06:07.00 1028.989 00:29:14 Yes 64
17 Tavares & Son - ON 7340-CU20-MISS 🔴ANYGIVENRACEDAY-DT BB H 2 11:08:00.00 1018.681 00:31:07 Yes 63
18 D & D Crozier - ON 20951-CU20-OSH 🔵Mighty Mittens-NG-JZ- BC C 1 11:08:52.00 1014.006 00:31:59 Yes 62
19 Kempens Koupe - ON 20042-CU20-CU 🟡KK-JZ-NG BB C 1 11:17:11.00 971.238 00:40:18 Yes 61
20 D & D Loft - QC 20309-CU20-LAVA 🟢Blade Runner CK H 1 11:18:13.00 966.175 00:41:20 Yes 60
21 Calgary Boys 3 - AB 8208-CU20-CU 🔵Pole Dancer-NG-WB-KV BBPI H 1 11:30:56.00 907.926 00:54:03 Yes 59
22 D & D Loft - QC 20410-CU20-LAVA 🟢HELL RAISER-JZ BB H 2 11:33:53.00 895.403 00:57:00 Yes 58
23 Silvercreek Loft - ON 13118-CU20-CU 🔵Bets Are Off-DD MLPI H 1 11:50:27.00 831.035 01:13:34 Yes 57
24 Tavares & Son - ON 6410-CU20-MISS 🔴Checker Flag-DT BLCH H 3 11:51:46.00 826.313 01:14:53 Yes 56
25 Fernando Ditri - ON 0564-CU20-HV 🟢SG-TERRY-NG-HR-FD BPI H 1 11:57:24.00 806.706 01:20:31 Yes 55
26 J & L Koper - ON 14822-CU20-CU 🔵Polish Prince-NG-KP BBPI C 1 11:57:25.00 806.649 01:20:32 Yes 54
27 Kearns Loft - ON 11246-CU20-CU 🟡Jet-SL BB H 1 12:00:22.00 796.749 01:23:29 Yes 53
28 J K Loft 2 - ON 0222-CU20-JKL 🟡Golden Dragon-ZQ-BB BB C 1 12:01:27.00 793.174 01:24:34 Yes 52
29 J K Loft 2 - ON 0111-CU20-JKL 🟡Maomao-ZQ BC C 2 12:12:45.00 757.713 01:35:52 Yes 51
30 Ian Sibbald - ON 5488-CU20-CU 🟡Chulla-IS-DD BB H 2 12:12:51.00 757.413 01:35:58 Yes 50
31 Klaus Petzold - AB 0716-CU20-CRPU 🟢Beetlejuice-KP-KP-KP DKCH H 1 12:18:59.00 739.476 01:42:06 Yes 49
32 Len Briggs - ON 10478-CU20-CU 🔵Mr Money BB H 1 12:44:32.00 673.073 02:07:39 Yes 48
33 Ian Sibbald - ON 5420-CU20-CU 🟡Bubbles E-IS CHPI C 3 12:49:50.00 660.766 02:12:57 Yes 47
34 Stacey Family Lofts - ON 60528-AU20-ARPU 🟢When Doves Cry BLCH H 1 13:11:13.00 615.366 02:34:20 Yes 46
35 Mp Pigeons - AB 19201-CU20-CU 🟡MR BOURGES BOY-MP-NG- BC C 1 13:22:39.00 593.559 02:45:46 Yes 45
36 King Conch Loft - ON 2082-CU20-KC 🔴Captain Conch-DZ-KV BB H 2 13:33:36.00 574.077 02:56:43 Yes 44
37 Gordon Jarrett - ON 7857-CU20-CU 🔵Kruzer-JZ BC C 1 13:42:21.00 559.404 03:05:28 Yes 43
38 Klaus Petzold - AB 0717-CU20-CRPU 🟢Dark Knight-KP-KP-KP DKCH H 2 13:45:22.00 554.518 03:08:29 Yes 42
39 Ian Sibbald - ON 5484-CU20-CU 🟡Dominique-IS-DD-NG BB H 4 14:14:18.00 511.653 03:37:25 Yes 41
40 Calgary Boys 3 - AB 8220-CU20-CU 🔵Red Panther-JZ-WB MEL C 2 14:20:10.00 503.758 03:43:17 Yes 40
41 Beelik & Alves - ON 10431-CU20-CU 🔵Tony's Donation-WB-HR BB H 1 14:25:37.00 496.638 03:48:44 Yes 39
42 Teixeira Loft - ON 2724-CU20-CU 🔴The Sound-CT-MS BB C 2 14:38:52.00 480.140 04:01:59 Yes 38
43 Crowland Township - ON 1040-CU20-NIAG 🟢ICEMAN-DT-RC-RC BB H 1 14:43:26.00 474.705 04:06:33 Yes 37
44 Calgary Boys 3 - AB 8202-CU20-CU 🔵Pioneer Wizard-WB BBPI C 3 14:59:45.00 456.253 04:22:52 Yes 36
45 D & D Crozier - ON 20952-CU20-OSH 🔵Cyndi Lauper-NG-DB BC H 2 15:00:08.00 455.836 04:23:15 Yes 35
46 Calgary Boys 3 - AB 8227-CU20-CU 🔵Long Legs-WB BB H 4 15:37:50.00 418.301 05:00:57 Yes 34
47 Emily Eichhorn - ON 8229-CU20-BARR 🟢Kit-Kat-DG-NG-EE CHB H 2 16:13:59.00 387.689 05:37:06 Yes 33
48 Len Briggs - ON 10458-CU20-CU 🔵Len Loves Money-DB BB H 2 16:22:27.00 381.156 05:45:34 Yes 32
49 Peter Kuo Loft - ON 1072-CU20-NW 🔵AMIJ-DZ-PK BL H 1 16:24:04.00 379.934 05:47:11 Yes 31
50 Werner Vahle - ON 8766-CU20-CU 🟢Ladies Man-SL DCWF C 2 16:24:42.00 379.457 05:47:49 Yes 30
51 N-D Loft - ON 0954-CU20-FLAM 🔴Shania DCPI H 1 16:25:37.00 378.769 05:48:44 Yes 29
52 South Shore Loft - NS 20094-CU20-NOVA 🔴MONA LISA VS BLACK WI BB C 1 16:26:12.00 378.333 05:49:19 Yes 28
53 Calgary Boys 3 - AB 8201-CU20-CU 🔵Splash Of Cash-WB-SL BBPI H 5 16:31:21.00 374.522 05:54:28 Yes 27
54 Klaus Petzold - AB 0714-CU20-CRPU 🟢Tequila-KP-SL BL H 3 16:38:10.00 369.595 06:01:17 Yes 26
55 Calgary Boys 3 - AB 8218-CU20-CU 🔵Big Bad John-NG-WB-JZ BB C 6 17:12:18.00 346.753 06:35:25 Yes 25
56 Calgary Boys 3 - AB 8203-CU20-CU 🔵See Me Now-WB RDGR H 7 17:41:19.00 329.446 07:04:26 Yes 24
57 South Shore Loft - NS 20081-CU20-NOVA 🔴CHAMP'S DOUBLE-DO-MS BBWF C 2 17:55:31.00 321.590 07:18:38 Yes 23
58 Antbar Loft - ON 2963-CU20-YRI 🔴Lethal Justice-TS BB H 2 18:27:36.00 305.150 07:50:43 Yes 22
59 Island Paradise Loft - ON 0301-CU20-MVRP 🔴Petey Pigeon-NG DC C 1 18:28:44.00 304.599 07:51:51 Yes 21
60 Paul Tsiampas - ON 20135-CU20-CU 🔵Prima BB H 2 19:20:47.00 281.312 08:43:54 Yes 20
61 Grampa Loft - ON 9250-CU20-CU 🟢Tiny-JZ BB H 1 19:21:34.00 280.988 08:44:41 Yes 19
62 Feathers Of Glory - ON 20036-CU20-CU 🟡F O G Jr-JZ-DZ BBPI H 1 2020-08-02 12:28:57.00 159.491 17:23:53 Yes 18
63 Grampa Loft - ON 9273-CU20-CU 🟢Little People BB H 2 2020-08-02 12:29:45.00 159.385 17:24:41 Yes 17
64 Tavares & Son - ON 7328-CU20-MIS 🔴SINGITAGAINSAM-JH-DT BB H 4 2020-08-02 12:38:54.00 158.180 17:33:50 Yes 16
65 Klaus Petzold - AB 0792-CU20-CRPU 🟢Sassy-AP-AP-AP BL H 4 2020-08-02 13:56:33.00 148.647 18:51:29 Yes 15
66 Hamid & Holder - ON 12561-CU20-CU 🔵SKYWALKER BB C 1 2020-08-02 15:16:04.00 140.006 20:11:00 Yes 14
Pigeonempire.Com Guido Madrusan - ON 5589-CU20-CU 🟢Lanna BB H 00:00:00.00 0.000 Inj
Ian Sibbald - ON 5425-CU20-CU 🟡Yami-IS-DZ-SL BBWF H 00:00:00.00 0.000 Yes
Kearns Loft - ON 11250-CU20-CU 🟡Exterminator Jr BB H 00:00:00.00 0.000 Yes
Teixeira Loft - ON 2734-CU20-CU 🔴My Pick BB H 00:00:00.00 0.000 Inj
R.S - ON 2659-CU20-CU 🟡Baby Blue BB H 00:00:00.00 0.000 Lost
Petey Pigeon & Simpson - ON 2655-CU20-CU 🟡SWEET JACK JR GRIZ C 00:00:00.00 0.000 Lost
Wings Of Stone Loft - NY 13130-CU20-CU 🟡Steve Rogers BB H 00:00:00.00 0.000 Lost
V And V Loft - MB 2039-CU20-CU 🔵Ken's Hope-MS BLCH C 00:00:00.00 0.000 Yes

There are 70 bird records

Note: These Race Results are unofficial and subject to change until verified by the Race Committee and declared final.

 

windy